sat.trackr.live / text

‹ back to catalog

STARLINK-3808

NORAD 52366 · 2022-045AM

PAYLOAD ACTIVE UNKNOWN

§ Identity

Operator
Country
US
Launch date
2022-04-29
Launch site
AFETR
Launch vehicle
Mass (kg)
RCS (m²)

Purposes: comms

External: N2YO · Heavens-Above · Gunter

§ Orbital elements

Epoch: 2026-05-25T03:34:58.751040Z

Period
95.44 min
Inclination
53.2122°
Eccentricity
0.0001197
Mean motion
15.08836151 rev/d
Perigee alt
538.9 km
Apogee alt
540.6 km
Semi-major
6,917.9 km
B*
-7.2275e-6
RAAN
205.8800°
Arg perigee
88.6735°
Mean anomaly
271.4394°
Rev number
22,746

§ Raw data

STARLINK-38081 52366U 22045AM  26145.14929110 -.00000403  00000+0 -72275-5 0  99962 52366  53.2122 205.8800 0001197  88.6735 271.4394 15.08836151227466

JSON: /api/v1/satellites/52366 · /tle

For live sub-satellite position, see the globe view (requires WebGL).

§ Visibility from observer

Set your observer location to see the next 7 days of passes ≥ 10°. The values pass through the URL so the page stays shareable.

No JS? Fill the form by hand. The geolocation button needs JavaScript.